CW9335 Weather Reports


time (UTC)temp
C
wind
direction
speed
KPH
gust
KPH
rain 1hr
cm
rain 24hr
cm
rain mn
cm
humidity
%
barometer
mb
20260504201337 22 0.0 3.2 0.00 0.00 0.00 39 1013.9
20260504200317 23 225 4.8 6.4 0.00 0.00 0.00 37 1014.0
20260504195317 23 248 3.2 6.4 0.00 0.00 0.00 37 1014.0
20260504194337 23 225 1.6 3.2 0.00 0.00 0.00 38 1014.0
20260504193317 23 248 3.2 6.4 0.00 0.00 0.00 38 1014.2
20260504192337 23 203 1.6 4.8 0.00 0.00 0.00 37 1014.3
20260504191317 23 0.0 1.6 0.00 0.00 0.00 38 1014.4
20260504190316 23 203 1.6 4.8 0.00 0.00 0.00 35 1014.8
20260504185317 23 338 1.6 4.8 0.00 0.00 0.00 35 1014.8
20260504184316 23 158 1.6 4.8 0.00 0.00 0.00 37 1014.9
20260504183316 22 180 1.6 3.2 0.00 0.00 0.00 37 1015.0
20260504182316 22 203 1.6 3.2 0.00 0.00 0.00 40 1015.2
20260504181316 22 0.0 1.6 0.00 0.00 0.00 40 1015.3
20260504180317 22 0.0 1.6 0.00 0.00 0.00 40 1015.4
20260504175316 21 0.0 1.6 0.00 0.00 0.00 39 1015.6
20260504174316 22 0.0 1.6 0.00 0.00 0.00 38 1015.5
20260504173317 23 135 1.6 3.2 0.00 0.00 0.00 36 1015.5
20260504172316 23 225 1.6 3.2 0.00 0.00 0.00 36 1015.7
20260504171316 23 203 1.6 3.2 0.00 0.00 0.00 35 1015.8
20260504170317 24 248 3.2 4.8 0.00 0.00 0.00 33 1015.9
20260504160316 22 248 1.6 3.2 0.00 0.00 0.00 37 1016.6
20260504150316 21 225 1.6 3.2 0.00 0.00 0.00 40 1017.2
20260504141316 18 225 3.2 4.8 0.00 0.00 0.00 39 1017.0
20260504140316 18 203 1.6 3.2 0.00 0.00 0.00 46 1017.1
20260504130316 13 0.0 1.6 0.00 0.00 0.00 59 1017.4
20260504120316 8 0.0 0.0 0.00 0.00 0.00 76 1017.8
20260504110316 6 0.0 0.0 0.00 0.00 0.00 77 1018.0
20260504100316 7 0.0 1.6 0.00 0.00 0.00 71 1017.6
20260504081336 10 0.0 0.0 0.00 0.00 0.00 59 1017.9
20260504080315 10 0.0 0.0 0.00 0.00 0.00 59 1017.7
20260504070315 10 0.0 0.0 0.00 0.00 0.00 59 1017.9
20260504050317 10 0.0 0.0 0.00 0.00 0.00 64 1018.2
20260504045317 10 0.0 0.0 0.00 0.00 0.00 65 1018.1
20260504044337 10 0.0 0.0 0.00 0.00 0.00 63 1018.2
20260504043337 10 0.0 0.0 0.00 0.00 0.00 64 1018.1
20260504042317 10 0.0 0.0 0.00 0.00 0.00 63 1018.0
20260504041317 10 0.0 0.0 0.00 0.00 0.00 64 1018.0
20260504040317 10 0.0 0.0 0.00 0.00 0.00 65 1018.0
20260504035317 9 0.0 0.0 0.00 0.00 0.00 65 1017.9
20260504034317 9 0.0 0.0 0.00 0.00 0.00 65 1018.0
20260504033317 9 0.0 0.0 0.00 0.00 0.00 65 1017.9
20260504032317 9 0.0 0.0 0.00 0.00 0.00 65 1017.9
20260504031337 9 0.0 0.0 0.00 0.00 0.00 66 1017.9
20260504030317 10 0.0 0.0 0.00 0.00 0.00 66 1017.9
20260504025337 10 0.0 0.0 0.00 0.00 0.00 64 1018.1
20260504024317 10 0.0 0.0 0.00 0.00 0.00 63 1018.0
20260504023317 10 0.0 0.0 0.00 0.00 0.00 62 1017.9
20260504022317 10 0.0 0.0 0.00 0.00 0.00 61 1017.9
20260504021337 10 0.0 0.0 0.00 0.00 0.00 59 1017.6
20260504020317 10 0.0 0.0 0.00 0.00 0.00 60 1017.6
20260504015317 10 0.0 0.0 0.00 0.00 0.00 59 1017.6
20260504014317 10 0.0 0.0 0.00 0.00 0.00 57 1017.4
20260504013317 10 0.0 0.0 0.00 0.00 0.00 57 1017.4
20260504012317 11 0.0 0.0 0.00 0.00 0.00 57 1017.3
20260504011317 11 0.0 0.0 0.00 0.00 0.00 56 1017.4
20260504010317 11 0.0 0.0 0.00 0.00 0.00 55 1017.3
20260504005317 11 0.0 0.0 0.00 0.00 0.00 54 1017.2
20260504004317 11 0.0 0.0 0.00 0.00 0.00 52 1017.0
20260504003337 11 0.0 0.0 0.00 0.00 0.00 52 1017.1
20260504002317 12 0.0 0.0 0.00 0.00 0.00 51 1017.0
20260504001317 12 0.0 0.0 0.00 0.00 0.00 49 1016.9
20260504000337 13 0.0 0.0 0.00 0.00 0.00 46 1016.9
20260503235317 13 0.0 0.0 0.00 0.00 0.00 44 1016.8
20260503234317 14 0.0 0.0 0.00 0.00 0.00 42 1016.8
20260503233317 15 0.0 0.0 0.00 0.00 0.00 38 1016.7
20260503232317 15 0.0 0.0 0.00 0.00 0.00 38 1016.7
20260503231317 15 0.0 1.6 0.00 0.00 0.00 37 1016.6
20260503230337 16 0.0 0.0 0.00 0.00 0.00 37 1016.5
20260503225317 16 0.0 0.0 0.00 0.00 0.00 34 1016.4
20260503224337 16 0.0 1.6 0.00 0.00 0.00 33 1016.6
20260503223317 16 0.0 0.0 0.00 0.00 0.00 34 1016.7
20260503222317 16 0.0 0.0 0.00 0.00 0.00 35 1016.6
20260503221317 17 0.0 1.6 0.00 0.00 0.00 31 1016.6
20260503220317 17 270 3.2 3.2 0.00 0.00 0.00 29 1016.6
20260503215317 17 0.0 1.6 0.00 0.00 0.00 30 1016.8
20260503214317 17 158 1.6 3.2 0.00 0.00 0.00 29 1016.7
20260503213317 17 225 1.6 3.2 0.00 0.00 0.00 30 1016.9
20260503212357 17 248 1.6 3.2 0.00 0.00 0.00 28 1016.9
20260503211317 17 293 1.6 1.6 0.00 0.00 0.00 28 1016.9
20260503210317 17 0.0 0.0 0.00 0.00 0.00 31 1016.9
20260503205317 17 248 1.6 3.2 0.00 0.00 0.00 30 1017.0
20260503204317 17 248 1.6 3.2 0.00 0.00 0.00 29 1017.0
20260503203337 17 225 1.6 4.8 0.00 0.00 0.00 30 1017.2
20260503202337 17 225 3.2 3.2 0.00 0.00 0.00 28 1017.4